Meteo Giornale » Osservazioni meteo Repubblica Ceca » Praha-Ruzyne

ore: 16:00 - Osservazioni Meteo Praha-Ruzyne
Lat. 50° 6' N Lon. 14° 15' E Alt. 365 metri s.l.m.

sereno Europe/Prague

29 °C

Sereno

Temp. 24 Ore

15 °C

29 °C

Ovest/Sud-Ovest

27.8 Km/h

Dew point 10 °C

Umidità 30 %

Visibilità  10 Km

Il sole sorge alle ore 06:46

Il sole tramonta alle ore 19:05

Data e Ora Cielo e Fenomeni T °C DP °C Um. % Pres. hPa Vis. km Vento km/h
Oggi h: 16:00 sereno Sereno 29 10 30 1009 10 O/SO 27.8
Oggi h: 15:58 sereno Sereno 29 10 30 1009 10 O/SO 29.6
Oggi h: 14:30 sereno Sereno 29 10 30 1010 10 SO 22.2
Oggi h: 14:00 sereno Sereno 29 9 28 1011 10 S/SO 24
Oggi h: 13:30 sereno Sereno 28 10 32 1011 10 S/SO 18.5
Oggi h: 13:00 sereno Sereno 28 10 32 1011 10 S/SO 18.5
Oggi h: 12:30 sereno Sereno 27 11 36 1012 10 S/SO 14.8
Oggi h: 12:00 sereno Sereno 26 12 41 1012 10 S/SO 14.8
Oggi h: 11:30 sereno Sereno 25 12 44 1013 10 S 14.8
Oggi h: 11:00 sereno Sereno 24 13 50 1013 10 S 16.7
Oggi h: 10:52 sereno Sereno 25 13 47 1013 10 S 16.7
Oggi h: 10:30 sereno Sereno 23 13 53 1013 10 S 16.7
Oggi h: 10:18 sereno Sereno 24 13 50 1013 10 S 16.7
Oggi h: 10:00 sereno Sereno 22 13 56 1013 10 S 18.5
Oggi h: 09:30 sereno Sereno 21 13 60 1013 10 S 18.5
Oggi h: 09:00 sereno Sereno 20 13 64 1014 10 S 14.8
Oggi h: 08:30 sereno Sereno 19 12 63 1014 10 S/SE 14.8
Oggi h: 08:00 sereno Sereno 18 12 67 1014 10 S/SE 14.8
Oggi h: 07:30 sereno Sereno 16 12 77 1014 10 S/SE 14.8
Oggi h: 07:00 sereno Sereno 15 12 82 1014 10 S/SE 14.8
Oggi h: 06:30 sereno Sereno 15 11 76 1014 10 S/SE 13
Oggi h: 06:00 sereno Sereno 15 11 76 1014 10 S/SE 13
Oggi h: 05:30 sereno Sereno 17 12 72 1015 10 S 14.8
Oggi h: 05:00 sereno Sereno 17 12 72 1015 10 S 14.8
Oggi h: 04:30 sereno Sereno 17 12 72 1015 10 S 11.1
Oggi h: 04:00 sereno Sereno 17 11 67 1015 10 S 13
Oggi h: 03:30 sereno Sereno 17 11 67 1015 10 S 11.1
Oggi h: 03:00 sereno Sereno 18 11 63 1016 10 S 11.1
Oggi h: 02:30 sereno Sereno 18 11 63 1016 10 S 13
Oggi h: 02:00 sereno Sereno 19 11 59 1016 10 S 13
Oggi h: 01:30 sereno Sereno 19 11 59 1016 10 S 13
Oggi h: 01:00 sereno Sereno 19 11 59 1017 10 S/SO 9.3
Oggi h: 00:30 sereno Sereno 19 11 59 1017 10 S 9.3
Oggi h: 00:00 sereno Sereno 19 11 59 1017 10 S 11.1
Ieri h: 23:30 sereno Sereno 19 10 55 1017 10 S 13
Ieri h: 23:00 sereno Sereno 20 11 56 1018 10 S 11.1
Ieri h: 22:30 sereno Sereno 20 10 52 1018 10 S/SO 11.1
Ieri h: 21:30 sereno Sereno 21 11 52 1018 10 S 13
Ieri h: 20:30 sereno Sereno 22 11 49 1018 10 S 13
Ieri h: 20:00 sereno Sereno 23 11 46 1018 10 S 9.3
Ieri h: 19:30 sereno Sereno 24 11 43 1018 10 S 11.1
Ieri h: 19:00 sereno Sereno 25 11 41 1018 10 S 13
Ieri h: 18:30 sereno Sereno 27 11 36 1018 10 S 7.4
Ieri h: 18:00 sereno Sereno 27 11 36 1018 10 S 13
Ieri h: 17:30 sereno Sereno 29 12 35 1018 10 S 11.1
Ieri h: 17:00 sereno Sereno 29 11 32 1018 10 SO 11.1